Location: Saint Louis
(38.6272°N, 90.1978°W)
Time: 07:05:00
(UTC-05:00)

ISS - Pass Details

Date: 09 January 2014
Orbit: 401 x 404 km, 51.6° (Epoch: 29 July)

Event Time Altitude Azimuth Distance (km) Brightness Sun altitude
Rises 05:15:20 0° 183° (S) 2,341 0.6 -23.5°
Reaches altitude 10° 05:18:38 10° 147° (SSE) 1,487 0.1 -22.9°
Maximum altitude 05:19:45 11° 128° (SE) 1,409 0.2 -22.7°
Drops below altitude 10° 05:20:53 10° 108° (ESE) 1,491 0.7 -22.5°
Sets 05:24:12 0° 73° (ENE) 2,360 1.6 -21.8°
